RH
35 40 44 45 48 51 55 59 71 78 71 59 62 59 61 63 62 62 61 57 73 74 75 72 69 70 71 68 68 66 60 60 61 60 59 61 62 64
42 44 49 52 55 58 59 61 64 76 83 69 75 74 72 72 68 71 66 65 61 73 74 71 71 73 72 71 69 70 70 61 61 58 60 58 60 64
48 52 55 60 61 61 62 64 66 69 85 81 80 79 80 77 74 73 75 75 72 77 77 73 75 74 72 70 70 68 66 68 64 59 58 63 60 62
55 61 63 64 64 65 66 68 73 77 84 89 86 85 85 83 81 79 72 73 70 66 81 80 77 74 74 76 77 76 78 78 81 65 65 68 62 61
65 67 67 68 68 69 75 82 80 81 85 91 91 90 89 90 88 82 77 75 72 68 82 78 77 80 84 81 81 82 81 78 80 73 66 62 64 63
71 71 70 72 78 83 81 80 83 82 84 88 89 83 83 80 82 83 82 83 81 80 79 80 82 80 80 80 84 82 86 88 85 73 67 64 65 67
73 75 78 76 80 78 81 81 82 86 91 95 84 88 85 87 90 88 92 89 88 82 83 78 71 68 68 65 63 56 69 87 80 76 71 70 71 71
77 73 69 66 69 82 86 86 84 86 92 94 99 86 86 85 84 85 87 90 90 90 82 83 84 87 83 77 64 84 91 90 86 79 78 77 74 74
74 73 71 70 75 81 78 86 93 98 97 92 93 96 93 87 98 96 96 98 98 96 98 98 96 93 80 80 76 86 93 91 87 83 81 81 80 80
76 72 77 81 83 92 86 98 89 86 79 86 90 90 96 96 83 87 93 94 88 83 89 96 86 92 75 79 70 70 69 91 88 86 86 86 84 85
73 81 87 90 88 87 95 86 82 83 70 88 96 90 82 86 91 95 94 97 89 87 82 95 89 89 88 80 66 63 69 89 89 80 80 88 87 83
86 90 84 90 83 90 80 83 89 77 98 96 75 70 74 79 93 99 100 99 96 91 81 89 95 89 86 72 73 72 74 63 64 63 60 68 80 70
92 88 79 90 87 79 79 83 84 88 88 71 91 97 89 88 88 94 100 100 100 96 91 99 98 99 95 90 80 80 85 74 73 65 59 77 76 77
93 88 90 96 85 83 82 84 80 84 78 96 97 88 90 91 90 86 89 98 100 100 94 100 99 98 97 93 88 79 83 88 79 73 62 70 77 77
78 87 96 90 88 89 89 86 86 87 98 100 94 93 94 95 93 96 96 94 95 100 89 88 100 99 99 96 93 86 88 86 89 87 72 75 83 83
81 91 79 80 86 89 90 88 90 93 94 98 98 98 100 97 96 95 98 96 94 91 83 85 96 97 98 99 100 93 96 95 82 90 86 78 83 89
88 72 76 88 92 91 91 89 90 93 94 97 98 100 98 97 95 95 100 95 95 93 92 89 88 96 97 99 99 99 98 96 87 85 85 85 79 80
84 84 98 96 96 92 86 90 92 93 93 92 96 99 99 96 97 95 90 91 94 93 94 94 95 97 93 85 93 100 100 100 88 82 86 100 100 91
93 99 100 99 96 90 94 91 95 92 94 93 99 100 98 97 97 96 96 96 94 92 92 93 99 100 95 92 76 80 97 82 80 89 87 96 100 95
98 97 97 98 98 99 99 100 97 95 94 98 95 99 100 100 99 96 95 96 96 96 96 89 95 97 96 92 94 87 83 87 93 99 95 85 83 82
93 93 94 99 100 100 100 100 96 99 99 98 98 100 100 100 98 98 96 92 90 93 94 91 90 96 98 98 97 89 80 81 86 96 98 99 98 94
97 100 99 100 100 100 99 100 100 100 100 100 99 100 100 100 99 97 97 97 96 96 96 97 96 98 98 98 92 93 88 85 88 78 85 99 96 96
97 98 97 97 99 98 98 98 100 100 100 100 100 99 100 99 98 98 98 99 99 97 97 96 94 96 97 99 96 97 97 91 92 82 87 85 91 96
Wind_Speed
7 8 9 10 10 10 12 13 10 5 8 9 6 27 30 29 28 28 27 28 26 26 25 25 25 25 25 25 25 26 24 24 23 23 23 24 23 25
8 9 9 10 12 12 14 15 17 17 6 15 23 29 29 27 29 26 28 28 28 27 26 25 25 25 25 25 26 26 26 25 23 23 23 24 24 25
8 10 12 12 13 14 16 18 19 21 18 23 25 29 28 30 31 29 28 28 28 26 25 26 26 26 26 26 26 27 28 27 24 23 25 24 25 26
11 12 13 13 15 16 17 20 21 23 24 24 25 26 27 28 28 29 30 28 28 28 25 25 26 26 26 25 25 26 26 25 23 23 24 24 24 26
11 13 14 15 17 18 19 21 23 23 23 24 28 25 24 23 25 25 28 30 34 31 27 25 25 26 24 24 24 24 26 27 26 23 25 25 24 24
11 13 14 15 16 19 21 20 19 24 24 22 23 23 22 23 22 25 27 25 29 29 31 29 26 24 23 23 23 23 23 23 25 24 25 25 25 25
12 13 15 16 17 16 17 21 23 24 21 19 22 22 22 22 22 24 26 29 26 25 31 31 28 27 32 31 30 28 22 21 22 23 24 25 24 24
15 17 17 17 17 16 19 19 19 23 24 23 20 23 23 25 25 25 27 25 16 18 20 25 27 31 33 33 31 25 24 24 24 25 25 25 25 24
14 15 17 17 19 21 21 21 23 22 22 24 26 24 25 26 28 29 27 27 25 26 26 28 22 29 30 33 30 26 24 24 24 25 26 26 24 23
14 15 17 19 20 20 24 23 21 21 25 24 25 29 28 27 30 29 30 30 28 26 22 24 25 24 32 31 29 27 25 23 23 24 25 25 24 22
15 16 17 19 21 22 22 23 24 26 28 22 20 24 27 24 24 25 23 24 21 19 19 22 26 25 27 29 27 21 20 18 16 22 22 23 22 17
18 18 19 19 20 20 23 22 23 29 24 21 30 29 25 24 24 21 23 22 23 17 14 13 17 17 11 21 18 14 25 25 24 21 20 15 12 12
18 21 22 19 19 22 20 21 22 24 22 26 24 21 22 23 22 22 22 23 24 24 25 25 18 16 15 18 22 25 26 24 23 20 17 14 13 13
18 20 20 18 20 20 19 18 21 21 23 22 20 21 23 24 26 26 28 24 24 29 30 28 23 22 22 21 20 21 23 21 22 22 18 17 19 19
18 19 18 19 19 18 16 18 18 21 21 19 20 22 25 29 29 27 27 27 27 28 28 26 29 27 24 22 20 22 21 17 21 22 18 18 18 19
19 18 19 17 16 16 17 20 20 20 20 20 23 25 26 25 26 26 27 27 26 27 30 28 23 23 23 22 21 22 20 14 16 20 20 20 20 18
17 20 20 19 17 18 19 19 20 21 21 21 23 24 25 26 27 29 27 27 24 25 26 29 26 21 23 23 21 20 22 23 23 24 23 24 23 20
16 18 15 15 15 18 20 21 21 21 22 23 24 24 26 26 28 28 28 26 25 26 25 26 26 23 22 21 20 22 20 25 26 25 23 19 20 21
15 15 15 17 18 19 20 21 22 23 24 24 26 26 26 27 29 28 27 26 25 26 27 25 22 17 8 8 16 17 24 25 23 20 20 21 20 20
15 16 18 19 20 21 22 22 23 24 25 26 26 27 28 27 28 26 26 26 25 24 23 23 20 20 14 11 10 23 17 22 23 20 22 23 24 22
16 18 19 20 21 22 23 24 24 24 25 26 27 27 29 28 29 24 27 30 29 24 22 22 25 22 23 22 10 16 24 17 15 19 20 17 18 16
19 20 22 23 23 25 26 25 25 24 26 27 28 29 30 28 28 26 27 26 25 24 25 27 28 24 22 16 14 16 19 17 15 15 15 20 14 3
20 23 23 24 25 26 26 27 27 28 29 30 31 32 30 28 26 28 27 26 25 24 24 25 24 21 21 18 19 16 19 22 19 18 19 17 20 25
Wind_Direction
322 322 318 317 316 316 315 317 308 309 311 308 307 312 322 325 325 322 320 320 315 314 313 312 311 308 306 298 293 289 287 292 292 293 292 294 297 302
323 320 319 318 317 317 316 314 306 294 286 302 300 308 319 318 320 314 315 315 313 312 311 310 309 305 304 301 293 287 287 287 286 290 290 292 293 296
328 321 318 320 319 319 316 310 308 307 289 300 302 310 310 312 317 319 316 314 314 311 307 308 309 307 304 300 296 288 282 281 280 286 289 288 290 293
325 321 322 323 316 317 315 311 310 310 300 296 304 305 302 309 310 311 316 312 312 312 306 304 303 304 304 302 299 294 291 288 279 283 287 288 286 288
323 322 324 321 317 318 317 315 314 312 308 294 297 302 303 304 302 304 301 303 307 310 303 302 301 300 299 302 297 297 288 285 285 284 285 283 280 283
324 324 320 318 318 320 316 314 314 312 306 295 299 307 310 310 303 303 303 301 300 300 298 297 297 295 298 304 301 301 295 283 280 282 282 281 280 279
324 323 320 317 315 313 312 312 311 307 297 295 299 301 311 311 304 306 297 300 299 296 292 295 302 299 303 307 310 309 300 287 283 282 281 279 278 277
324 321 321 325 325 316 313 308 305 304 302 299 301 308 309 309 307 306 300 296 296 304 289 293 294 291 294 299 306 301 294 288 282 283 282 277 274 273
323 325 326 328 323 322 322 314 303 302 302 308 301 299 302 305 303 308 306 297 288 289 293 288 290 284 297 299 301 296 291 288 284 284 282 279 274 271
326 327 325 325 327 322 313 306 318 314 316 311 302 303 302 308 309 307 303 298 292 292 292 284 295 282 296 298 302 299 296 287 287 290 286 279 272 269
329 330 329 325 325 316 315 322 317 317 321 316 308 307 308 309 311 315 314 313 306 299 298 280 284 289 295 298 303 307 302 292 287 304 302 279 266 260
329 334 334 323 318 317 322 319 322 319 323 325 320 321 321 324 324 320 315 311 311 309 305 287 285 280 291 293 295 300 301 297 301 300 303 293 255 266
336 333 330 325 319 321 320 320 316 321 325 328 331 326 321 319 319 316 310 303 300 294 299 304 295 288 278 287 291 295 298 302 300 295 299 278 262 279
329 326 323 320 319 319 319 321 322 322 329 328 322 325 323 320 318 315 311 303 295 297 302 293 282 286 281 281 283 287 293 292 294 291 292 284 268 269
326 321 320 321 320 323 327 324 328 339 330 322 320 314 317 318 318 312 311 306 303 302 308 304 284 284 273 272 279 284 289 284 290 290 284 279 276 274
335 329 332 336 339 335 335 338 341 338 328 319 318 315 315 317 316 316 313 313 308 302 309 310 300 288 282 276 271 277 273 265 278 282 290 292 280 279
331 338 347 347 342 340 338 337 336 331 328 324 321 319 317 315 317 317 313 314 308 304 304 308 312 297 293 287 274 273 272 260 262 274 282 286 283 279
334 346 338 332 331 337 336 331 328 327 327 325 321 316 314 315 315 315 316 312 304 301 301 301 301 307 300 297 267 260 263 262 274 279 279 269 275 284
342 336 332 336 333 332 327 325 321 322 322 320 313 311 312 313 312 309 311 310 305 301 296 294 288 282 284 281 286 266 259 270 276 272 267 268 265 275
349 342 335 330 325 320 319 320 320 321 320 316 316 311 308 309 307 303 311 309 304 302 305 303 293 275 268 275 275 288 285 265 269 268 270 280 282 285
345 336 330 322 317 318 317 317 318 315 314 314 313 308 306 306 304 296 309 312 310 306 302 302 301 295 288 291 266 271 286 279 271 270 277 274 278 282
331 325 326 326 322 322 323 316 312 313 312 310 310 307 306 304 302 304 310 307 304 302 299 301 307 300 291 274 271 274 282 276 278 283 277 261 246 259
333 335 328 329 330 330 327 325 321 312 313 312 311 311 307 304 302 309 308 306 303 303 304 303 309 301 282 272 270 273 271 271 279 295 289 276 261 260